TimeMDT,TemperatureF,Dew PointF,Humidity,Sea Level PressureIn,VisibilityMPH,Wind Direction,Wind SpeedMPH,Gust SpeedMPH,PrecipitationIn,Events,Conditions,WindDirDegrees,DateUTC
12:55 AM,33.3,33.3,100,29.79,10.0,SE,5.8,-,N/A,,Scattered Clouds,140,2012-10-23 06:55:00
1:55 AM,33.6,33.6,100,29.78,10.0,ENE,5.8,-,N/A,,Partly Cloudy,70,2012-10-23 07:55:00
1:58 AM,33.8,33.8,100,29.78,10.0,East,3.5,-,N/A,,Mostly Cloudy,80,2012-10-23 07:58:00
2:44 AM,33.8,33.8,100,29.78,10.0,East,6.9,-,N/A,,Mostly Cloudy,90,2012-10-23 08:44:00
2:55 AM,34.3,34.3,100,29.78,10.0,East,6.9,-,N/A,,Scattered Clouds,100,2012-10-23 08:55:00
3:20 AM,33.8,33.8,100,29.77,10.0,East,6.9,-,N/A,,Mostly Cloudy,80,2012-10-23 09:20:00
3:55 AM,35.4,35.4,100,29.78,10.0,ESE,12.7,-,0.00,,Light Drizzle,110,2012-10-23 09:55:00
4:01 AM,35.6,35.6,100,29.78,10.0,ESE,11.5,-,N/A,,Light Drizzle,110,2012-10-23 10:01:00
4:15 AM,35.6,35.6,100,29.77,10.0,ESE,9.2,-,N/A,,Mostly Cloudy,110,2012-10-23 10:15:00
4:40 AM,37.4,37.4,100,29.77,10.0,ESE,12.7,-,N/A,,Scattered Clouds,110,2012-10-23 10:40:00
4:55 AM,38.1,38.1,100,29.77,10.0,ESE,10.4,-,0.00,,Mostly Cloudy,110,2012-10-23 10:55:00
5:24 AM,37.4,37.4,100,29.77,10.0,ENE,6.9,-,N/A,,Scattered Clouds,70,2012-10-23 11:24:00
5:55 AM,36.1,36.1,100,29.78,10.0,East,10.4,-,N/A,,Clear,90,2012-10-23 11:55:00
6:17 AM,37.4,37.4,100,29.78,10.0,East,9.2,-,N/A,,Mostly Cloudy,90,2012-10-23 12:17:00
6:55 AM,37.8,37.8,100,29.78,10.0,East,9.2,-,N/A,,Overcast,90,2012-10-23 12:55:00
7:55 AM,37.9,37.8,99,29.81,10.0,West,11.5,20.7,N/A,Rain,Light Rain,280,2012-10-23 13:55:00
8:24 AM,37.4,37.4,100,29.84,10.0,Variable,4.6,-,N/A,Rain,Light Rain,0,2012-10-23 14:24:00
8:30 AM,37.4,37.4,100,29.84,10.0,Calm,Calm,-,N/A,,Overcast,0,2012-10-23 14:30:00
8:55 AM,36.1,36.1,100,29.86,10.0,Variable,4.6,-,0.00,,Mostly Cloudy,0,2012-10-23 14:55:00
9:55 AM,36.9,36.9,100,29.89,10.0,North,4.6,-,N/A,,Partly Cloudy,360,2012-10-23 15:55:00
10:55 AM,44.4,32.2,62,29.90,10.0,WNW,15.0,-,N/A,,Scattered Clouds,290,2012-10-23 16:55:00
11:55 AM,46.4,30.6,54,29.92,10.0,West,11.5,-,N/A,,Scattered Clouds,280,2012-10-23 17:55:00
12:32 PM,46.4,28.4,50,29.93,10.0,NW,11.5,-,N/A,,Mostly Cloudy,320,2012-10-23 18:32:00
12:55 PM,46.6,27.0,46,29.94,10.0,WNW,10.4,-,N/A,,Mostly Cloudy,300,2012-10-23 18:55:00
1:24 PM,46.4,28.4,50,29.93,10.0,West,6.9,-,N/A,,Mostly Cloudy,280,2012-10-23 19:24:00
1:55 PM,48.4,28.2,46,29.93,10.0,NNW,9.2,-,N/A,,Mostly Cloudy,340,2012-10-23 19:55:00
2:37 PM,48.2,24.8,40,29.92,10.0,NW,9.2,-,N/A,,Mostly Cloudy,320,2012-10-23 20:37:00
2:55 PM,48.2,23.9,39,29.93,10.0,NNW,6.9,-,N/A,,Mostly Cloudy,340,2012-10-23 20:55:00
3:45 PM,50.0,21.2,32,29.92,10.0,WNW,10.4,-,N/A,,Mostly Cloudy,290,2012-10-23 21:45:00
3:55 PM,51.1,21.2,31,29.92,10.0,NW,9.2,-,N/A,,Mostly Cloudy,320,2012-10-23 21:55:00
4:17 PM,50.0,24.8,37,29.92,10.0,North,12.7,24.2,N/A,,Mostly Cloudy,10,2012-10-23 22:17:00
4:55 PM,48.0,24.6,40,29.94,10.0,North,12.7,-,N/A,,Scattered Clouds,10,2012-10-23 22:55:00
5:45 PM,48.2,24.8,40,29.95,10.0,North,6.9,-,N/A,,Scattered Clouds,10,2012-10-23 23:45:00
5:55 PM,47.1,23.9,40,29.96,10.0,NNE,6.9,-,N/A,,Scattered Clouds,20,2012-10-23 23:55:00
6:55 PM,44.4,25.7,48,29.97,10.0,NE,4.6,-,N/A,,Clear,40,2012-10-24 00:55:00
7:45 PM,37.4,26.6,65,30.00,10.0,ENE,5.8,-,N/A,,Overcast,70,2012-10-24 01:45:00
7:55 PM,37.4,27.7,68,30.00,10.0,ENE,4.6,-,N/A,,Overcast,70,2012-10-24 01:55:00
8:26 PM,39.2,28.4,65,30.00,10.0,South,3.5,-,N/A,,Overcast,190,2012-10-24 02:26:00
8:55 PM,41.2,32.5,71,30.02,10.0,WNW,15.0,24.2,0.00,Rain,Light Rain,300,2012-10-24 02:55:00
9:19 PM,39.2,37.4,93,30.02,10.0,North,12.7,-,N/A,Rain,Light Rain,360,2012-10-24 03:19:00
9:55 PM,36.7,36.7,100,30.01,10.0,NE,12.7,-,0.01,,Light Drizzle,50,2012-10-24 03:55:00
10:55 PM,35.1,35.1,100,30.01,10.0,ENE,6.9,-,0.00,,Clear,70,2012-10-24 04:55:00
11:55 PM,33.1,33.1,100,30.01,10.0,ESE,4.6,-,N/A,,Clear,110,2012-10-24 05:55:00